Regional Weather Roundup
Issued by NWS Cleveland, OH

Home | Current Version | Previous Version | Graphics & Text | Print | Product List | Glossary On
Versions: 1 2 3 4 5 6 7 8 9 10 11 12 13 14 15 16 17 18 19 20 21 22 23 24 25 26 27 28 29 30 31 32 33 34 35 36 37 38 39 40 41 42 43 44 45 46 47 48 49 50
000
ASUS41 KCLE 190802
RWRCLE
OHIO REGIONAL WEATHER ROUNDUP
NATIONAL WEATHER SERVICE CLEVELAND, OH
300 AM EST THU JAN 19 2017

NOTE: "FAIR" INDICATES FEW OR NO CLOUDS BELOW 12,000 FEET WITH NO
SIGNIFICANT WEATHER AND/OR OBSTRUCTIONS TO VISIBILITY.

OHZ001>008-015>018-024>027-034-035-043-044-190900-
   NORTHWEST OHIO

CITY           SKY/WX    TMP DP  RH WIND       PRES   REMARKS
DEFIANCE       CLOUDY    34  32  92 SW9       30.11R WCI  27
FINDLAY        CLOUDY    37  32  82 SW9       30.09R
TOLEDO EXPRESS CLOUDY    34  33  96 SW12      30.08R WCI  25
TOLEDO EXEC    CLOUDY    36  34  92 SW13      30.09R
LIMA           CLOUDY    35  35 100 SW12      30.10R WCI  27
$$

OHZ009>014-019>023-028>033-038-089-190900-
   NORTHEAST OHIO

CITY           SKY/WX    TMP DP  RH WIND       PRES   REMARKS
CLE-HOPKINS    CLOUDY    38  33  82 SW12      30.10S
CLE-LAKEFRONT  CLOUDY    37  34  89 SW10      30.08S
CUY CO. ARPT   NOT AVBL
LORAIN-ELYRIA  CLOUDY    36  32  85 SW12      30.09S
ASHTABULA      CLOUDY    37  35  92 SW9       30.07S
AKRON-CANTON   CLOUDY    37  33  85 SW9       30.08S
WOOSTER        CLOUDY    36  34  92 SW9       30.09S
MANSFIELD      CLOUDY    36  36 100 SW6       30.08S FOG
YOUNGSTOWN     DRIZZLE   36  34  92 SW10      30.07S
$$

OHZ042-051>053-060>062-070>072-077>081-190900-
  SOUTHWEST OHIO

CITY           SKY/WX    TMP DP  RH WIND       PRES   REMARKS
CINC-COVINGTON CLOUDY    39  37  92 S3        30.12R
CINC-LUNKEN    CLOUDY    41  38  89 CALM      30.15R
HAMILTON       CLOUDY    40  37  89 SW5       30.14R
DAYTON         CLOUDY    36  35  96 SW8       30.11S FOG
WRIGHT-PAT AFB CLOUDY    38  38  99 SW6       30.11S
DAYTON GENERAL CLOUDY    38  36  92 SW7       30.11R
WILMINGTON     CLOUDY    37  36  96 SW8       30.11R
$$

OHZ036-037-039>041-045>050-054>059-063>069-073>076-082>088-190900-
  CENTRAL AND SOUTHEAST OHIO

CITY           SKY/WX    TMP DP  RH WIND       PRES   REMARKS
COLUMBUS       CLOUDY    40  36  86 S6        30.11R
OSU AIRPORT    CLOUDY    38  37  97 SW9       30.11R
BOLTON FIELD   NOT AVBL
RICKENBACK AFB NOT AVBL
NEWARK         CLOUDY    39  36  89 SW7       30.11S
MARION         CLOUDY    37  35  92 SW9       30.10R
LANCASTER      CLOUDY    40  36  86 W6        30.13R
ZANESVILLE     CLOUDY    39  35  86 SW5       30.12S
NEW PHILLY     NOT AVBL
$$




USA.gov is the U.S. government's official web portal to all federal, state and local government web resources and services.